Torna al catalogo

COSMOS 1749

AttivoMilitareLEO
NORAD 16759·PAYLOAD·🇷🇺 Russia

Lanciato Jun 6, 1986 da Plesetsk Cosmodrome

Loading…

Prossimi Passaggi (prossime 24 ore)

TLE

AggiornatoSource: Space-Track

Epoca: Sep 14, 2026, 01:45 UTC

1 16759U 86042B   26257.07331620 -.00000023  00000-0 -38679-4 0  9996
2 16759  74.0147 266.4783 0048588 351.5396  27.3666 12.58110358849627

Traccia COSMOS 1749 in tempo reale con AllMySat

Download on the App Store